Tracking 18843 objects as of 20-November-2017
HD Live streaming from Space Station
objects crossing your sky now

FENGYUN 1C DEB

Track FENGYUN 1C DEB now!
10-day predictions


NORAD ID: 30660
Int'l Code: 1999-025APS
Perigee: 547.7 km
Apogee: 822.8 km
Inclination: 98.4 °
Period: 98.3 minutes
Semi major axis: 7056 km
RCS: 0.0091 m2 (small)
Launch date: May 10, 1999
Source: People's Republic of China (PRC)
Launch site: Taiyaun Space Center, China (TSC)

Note: This is SATELLITE DEBRIS
aabbcc
Your satellite tracking list
Your tracking list is empty




NASA's NSSDC Master Catalog

Two Line Element Set (TLE):
1 30660U 99025APS 17323.85985161  .00000601  00000-0  95145-4 0  9994
2 30660  98.4329 338.5883 0194933 287.1061 197.0608 14.64674245575331
Source of the keplerian elements: AFSPC